| time (UTC) | temp F | wind direction | speed MPH | gust MPH | rain 1hr in | rain 24hr in | rain mn in | humidity % | barometer mb |
| 20260505180003 | 54 | 77 | 3.0 | 4.0 | 0.00 | 1.72 | 0.01 | 91 | 1008.8 |
| 20260505175403 | 54 | 67 | 3.0 | 4.0 | 0.00 | 1.72 | 0.01 | 91 | 1008.5 |
| 20260505174504 | 54 | 67 | 4.0 | 5.0 | 0.00 | 1.72 | 0.01 | 91 | 1008.6 |
| 20260505173603 | 54 | 79 | 3.0 | 6.0 | 0.00 | 1.72 | 0.01 | 91 | 1008.7 |
| 20260505172705 | 54 | 65 | 4.0 | 6.0 | 0.00 | 1.72 | 0.01 | 90 | 1008.7 |
| 20260505171805 | 54 | 60 | 4.0 | 5.0 | 0.00 | 1.72 | 0.01 | 90 | 1008.7 |
| 20260505170905 | 54 | 69 | 5.0 | 6.0 | 0.00 | 1.72 | 0.01 | 90 | 1008.7 |
| 20260505170005 | 54 | 58 | 5.0 | 6.0 | 0.00 | 1.72 | 0.01 | 90 | 1009.0 |
| 20260505165404 | 54 | 54 | 5.0 | 6.0 | 0.00 | 1.72 | 0.01 | 91 | 1008.8 |
| 20260505164505 | 54 | 48 | 4.0 | 5.0 | 0.00 | 1.72 | 0.01 | 91 | 1008.9 |
| 20260505163605 | 54 | 46 | 5.0 | 6.0 | 0.00 | 1.72 | 0.01 | 91 | 1008.9 |
| 20260505162917 | 54 | 59 | 5.0 | 6.0 | 0.00 | 1.72 | 0.01 | 91 | 1008.8 |
| 20260505161803 | 54 | 48 | 5.0 | 6.0 | 0.00 | 1.72 | 0.01 | 92 | 1008.8 |
| 20260505160905 | 54 | 68 | 5.0 | 6.0 | 0.00 | 1.72 | 0.01 | 92 | 1008.9 |
| 20260505152913 | 54 | 48 | 3.0 | 5.0 | 0.00 | 1.72 | 0.01 | 93 | 1009.0 |
| 20260505151803 | 54 | 56 | 3.0 | 6.0 | 0.00 | 1.72 | 0.01 | 93 | 1009.0 |
| 20260505150903 | 54 | 58 | 4.0 | 5.0 | 0.00 | 1.72 | 0.01 | 93 | 1009.3 |
| 20260505124503 | 52 | 70 | 5.0 | 8.0 | 0.00 | 1.72 | 0.01 | 99 | 1009.9 |
| 20260505123605 | 51 | 39 | 5.0 | 8.0 | 0.00 | 1.72 | 0.01 | 99 | 1009.9 |
| 20260505122705 | 52 | 34 | 4.0 | 6.0 | 0.00 | 1.72 | 0.01 | 99 | 1009.9 |
| 20260505121803 | 52 | 52 | 4.0 | 5.0 | 0.00 | 1.72 | 0.01 | 99 | 1010.1 |
| 20260505120905 | 52 | 55 | 5.0 | 5.0 | 0.00 | 1.72 | 0.01 | 99 | 1010.0 |
| 20260505120007 | 52 | 61 | 5.0 | 6.0 | 0.00 | 1.72 | 0.01 | 99 | 1010.0 |
| 20260505115406 | 51 | 60 | 5.0 | 6.0 | 0.00 | 1.72 | 0.01 | 99 | 1010.1 |
| 20260505114716 | 51 | 57 | 4.0 | 6.0 | 0.00 | 1.72 | 0.01 | 99 | 1010.1 |
| 20260505113603 | 51 | 41 | 4.0 | 5.0 | 0.00 | 1.72 | 0.01 | 99 | 1010.3 |
| 20260505112703 | 51 | 38 | 6.0 | 6.0 | 0.00 | 1.72 | 0.01 | 99 | 1010.3 |
| 20260505111803 | 51 | 44 | 5.0 | 6.0 | 0.00 | 1.72 | 0.01 | 99 | 1010.4 |
| 20260505110905 | 51 | 62 | 4.0 | 5.0 | 0.00 | 1.72 | 0.01 | 99 | 1010.5 |
| 20260505101803 | 51 | 45 | 5.0 | 6.0 | 0.00 | 1.72 | 0.01 | 99 | 1010.4 |
| 20260505100908 | 51 | 56 | 4.0 | 4.0 | 0.00 | 1.72 | 0.01 | 99 | 1010.6 |
| 20260505100004 | 51 | 60 | 4.0 | 6.0 | 0.00 | 1.72 | 0.01 | 99 | 1010.4 |
| 20260505095404 | 51 | 45 | 5.0 | 7.0 | 0.00 | 1.72 | 0.01 | 99 | 1010.5 |
| 20260505094504 | 52 | 52 | 4.0 | 5.0 | 0.00 | 1.72 | 0.01 | 99 | 1010.2 |
| 20260505093603 | 51 | 59 | 5.0 | 7.0 | 0.00 | 1.72 | 0.01 | 99 | 1010.3 |
| 20260505092705 | 51 | 51 | 6.0 | 7.0 | 0.00 | 1.72 | 0.01 | 99 | 1010.4 |
| 20260505091804 | 51 | 71 | 5.0 | 6.0 | 0.00 | 1.72 | 0.01 | 99 | 1010.5 |
| 20260505091117 | 51 | 54 | 6.0 | 7.0 | 0.00 | 1.72 | 0.01 | 99 | 1010.5 |
| 20260505090007 | 51 | 35 | 6.0 | 6.0 | 0.00 | 1.72 | 0.01 | 99 | 1010.5 |
| 20260505085405 | 51 | 44 | 5.0 | 6.0 | 0.00 | 1.72 | 0.01 | 99 | 1010.4 |
| 20260505084503 | 51 | 38 | 5.0 | 7.0 | 0.00 | 1.72 | 0.01 | 99 | 1010.4 |
| 20260505083815 | 51 | 50 | 5.0 | 7.0 | 0.00 | 1.72 | 0.01 | 99 | 1010.8 |
| 20260505082705 | 51 | 21 | 5.0 | 5.0 | 0.00 | 1.72 | 0.01 | 99 | 1010.5 |
| 20260505081808 | 51 | 55 | 6.0 | 7.0 | 0.00 | 1.72 | 0.01 | 99 | 1010.6 |
| 20260505080904 | 52 | 58 | 4.0 | 6.0 | 0.00 | 1.72 | 0.01 | 99 | 1010.4 |
| 20260505080004 | 51 | 43 | 4.0 | 6.0 | 0.00 | 1.72 | 0.01 | 99 | 1010.5 |
| 20260505075403 | 51 | 56 | 4.0 | 5.0 | 0.00 | 1.72 | 0.01 | 99 | 1010.7 |
| 20260505074505 | 51 | 70 | 3.0 | 5.0 | 0.00 | 1.72 | 0.01 | 99 | 1010.7 |
| 20260505073603 | 51 | 39 | 4.0 | 5.0 | 0.00 | 1.72 | 0.01 | 99 | 1010.8 |
| 20260505072708 | 51 | 44 | 4.0 | 4.0 | 0.00 | 1.72 | 0.01 | 99 | 1010.8 |
| 20260505071805 | 51 | 34 | 4.0 | 5.0 | 0.00 | 1.72 | 0.01 | 99 | 1010.7 |
| 20260505070904 | 51 | 26 | 5.0 | 5.0 | 0.00 | 1.72 | 0.01 | 99 | 1010.6 |
| 20260505070004 | 51 | 28 | 4.0 | 6.0 | 0.00 | 1.72 | 0.01 | 99 | 1010.4 |
| 20260505065408 | 51 | 40 | 4.0 | 6.0 | 0.00 | 1.72 | 0.01 | 99 | 1010.4 |
| 20260505064719 | 51 | 16 | 4.0 | 5.0 | 0.00 | 1.72 | 0.01 | 99 | 1010.6 |
| 20260505063816 | 51 | 358 | 4.0 | 6.0 | 0.00 | 1.72 | 0.01 | 99 | 1010.7 |
| 20260505062703 | 51 | 25 | 4.0 | 5.0 | 0.00 | 1.72 | 0.01 | 99 | 1010.6 |
| 20260505061803 | 51 | 48 | 5.0 | 6.0 | 0.00 | 1.72 | 0.01 | 99 | 1010.8 |
| 20260505060903 | 51 | 42 | 6.0 | 5.0 | 0.00 | 1.72 | 0.01 | 98 | 1010.9 |
| 20260505060005 | 52 | 48 | 4.0 | 4.0 | 0.00 | 1.72 | 0.01 | 99 | 1010.9 |
| 20260505055405 | 52 | 58 | 4.0 | 5.0 | 0.00 | 1.72 | 0.01 | 99 | 1010.9 |
| 20260505054715 | 51 | 46 | 5.0 | 6.0 | 0.00 | 1.72 | 0.01 | 99 | 1011.0 |
| 20260505053604 | 52 | 26 | 4.0 | 8.0 | 0.00 | 1.72 | 0.01 | 99 | 1010.8 |
| 20260505052914 | 52 | 51 | 5.0 | 6.0 | 0.00 | 1.72 | 0.01 | 99 | 1010.5 |
| 20260505051805 | 52 | 30 | 4.0 | 6.0 | 0.00 | 1.72 | 0.01 | 99 | 1010.6 |
| 20260505051114 | 52 | 50 | 4.0 | 5.0 | 0.00 | 1.72 | 0.01 | 99 | 1010.8 |
| 20260505040903 | 53 | 36 | 3.0 | 3.0 | 0.00 | 1.72 | 0.01 | 99 | 1011.0 |
| 20260505040005 | 53 | 46 | 1.0 | 2.0 | 0.00 | 1.72 | 0.01 | 99 | 1010.9 |
| 20260505035403 | 53 | 46 | 1.0 | 2.0 | 0.00 | 1.72 | 0.01 | 99 | 1010.8 |
| 20260505034506 | 53 | 67 | 3.0 | 4.0 | 0.00 | 1.72 | 0.01 | 99 | 1010.8 |
| 20260505033605 | 53 | 67 | 4.0 | 5.0 | 0.00 | 1.72 | 0.01 | 99 | 1010.6 |
| 20260505032703 | 53 | 61 | 5.0 | 5.0 | 0.00 | 1.72 | 0.01 | 99 | 1011.0 |
| 20260505031803 | 53 | 45 | 4.0 | 5.0 | 0.00 | 1.72 | 0.01 | 99 | 1010.9 |
| 20260505030907 | 53 | 48 | 4.0 | 4.0 | 0.00 | 1.71 | 0.00 | 99 | 1010.8 |
| 20260505030218 | 53 | 47 | 5.0 | 6.0 | 0.00 | 1.71 | 0.00 | 99 | 1010.9 |
| 20260505025405 | 53 | 34 | 5.0 | 6.0 | 0.00 | 1.71 | 0.00 | 99 | 1010.9 |
| 20260505024508 | 53 | 36 | 5.0 | 7.0 | 0.00 | 1.71 | 0.00 | 99 | 1011.2 |
| 20260505023603 | 53 | 47 | 5.0 | 6.0 | 0.00 | 1.71 | 0.00 | 99 | 1011.0 |
| 20260505022703 | 53 | 40 | 4.0 | 5.0 | 0.00 | 1.71 | 0.00 | 99 | 1011.1 |
| 20260505021803 | 54 | 37 | 4.0 | 5.0 | 0.00 | 1.71 | 0.00 | 99 | 1011.2 |
| 20260505020905 | 54 | 39 | 5.0 | 7.0 | 0.00 | 1.71 | 0.00 | 99 | 1011.1 |
| 20260505020004 | 54 | 70 | 4.0 | 6.0 | 0.00 | 1.71 | 0.00 | 99 | 1011.1 |
| 20260505015615 | 54 | 59 | 5.0 | 6.0 | 0.00 | 1.71 | 0.00 | 99 | 1011.0 |
| 20260505014503 | 54 | 53 | 4.0 | 5.0 | 0.00 | 1.71 | 0.00 | 99 | 1011.0 |
| 20260505013605 | 54 | 41 | 6.0 | 8.0 | 0.00 | 1.71 | 0.00 | 99 | 1011.0 |
| 20260505012705 | 54 | 39 | 5.0 | 5.0 | 0.00 | 1.71 | 0.00 | 99 | 1010.9 |
| 20260505011804 | 54 | 57 | 6.0 | 10.0 | 0.00 | 1.71 | 0.00 | 99 | 1011.1 |
| 20260505010905 | 54 | 51 | 6.0 | 8.0 | 0.00 | 1.71 | 0.00 | 99 | 1010.9 |
| 20260505010005 | 54 | 42 | 6.0 | 8.0 | 0.00 | 1.71 | 0.00 | 99 | 1011.1 |
| 20260505005405 | 54 | 39 | 6.0 | 6.0 | 0.00 | 1.71 | 0.00 | 99 | 1011.1 |
| 20260505004506 | 55 | 36 | 5.0 | 6.0 | 0.00 | 1.71 | 0.00 | 99 | 1011.0 |
| 20260505003605 | 55 | 50 | 4.0 | 5.0 | 0.00 | 1.71 | 0.00 | 99 | 1011.4 |
| 20260505002704 | 55 | 32 | 5.0 | 5.0 | 0.00 | 1.71 | 0.00 | 99 | 1011.2 |
| 20260505001803 | 55 | 22 | 4.0 | 5.0 | 0.00 | 1.71 | 0.00 | 99 | 1011.3 |
| 20260505000907 | 55 | 28 | 3.0 | 4.0 | 0.00 | 1.71 | 0.00 | 99 | 1011.3 |
| 20260505000004 | 55 | 47 | 4.0 | 6.0 | 0.00 | 1.71 | 0.00 | 99 | 1011.3 |
| 20260504235404 | 55 | 57 | 3.0 | 6.0 | 0.00 | 1.71 | 0.00 | 99 | 1011.3 |
| 20260504234504 | 56 | 57 | 2.0 | 6.0 | 0.00 | 1.71 | 0.00 | 99 | 1011.6 |
| 20260504233605 | 56 | 46 | 2.0 | 3.0 | 0.00 | 1.71 | 0.00 | 99 | 1011.4 |
| 20260504232913 | 56 | 58 | 2.0 | 3.0 | 0.00 | 1.71 | 0.00 | 99 | 1011.5 |
| 20260504231803 | 56 | 55 | 4.0 | 5.0 | 0.00 | 1.71 | 0.00 | 99 | 1011.3 |
| 20260504231118 | 56 | 46 | 2.0 | 3.0 | 0.00 | 1.71 | 0.00 | 99 | 1011.7 |
| 20260504230215 | 56 | 82 | 1.0 | 2.0 | 0.00 | 1.71 | 0.00 | 99 | 1011.6 |
| 20260504225406 | 56 | 29 | 1.0 | 1.0 | 0.00 | 1.71 | 0.00 | 99 | 1011.6 |
| 20260504224508 | 56 | 35 | 1.0 | 3.0 | 0.00 | 1.71 | 0.00 | 99 | 1011.7 |
| 20260504223816 | 56 | 58 | 1.0 | 2.0 | 0.00 | 1.71 | 0.00 | 99 | 1011.6 |
| 20260504222705 | 56 | 259 | 2.0 | 3.0 | 0.00 | 1.71 | 0.00 | 99 | 1011.9 |
| 20260504221805 | 56 | 241 | 1.0 | 2.0 | 0.00 | 1.71 | 0.00 | 99 | 1011.9 |
| 20260504220903 | 56 | 240 | 1.0 | 2.0 | 0.00 | 1.71 | 0.00 | 99 | 1012.1 |
| 20260504220007 | 56 | 220 | 0.0 | 1.0 | 0.00 | 1.71 | 0.00 | 99 | 1012.2 |
| 20260504215403 | 56 | 236 | 0.0 | 2.0 | 0.00 | 1.68 | 1.68 | 99 | 1012.2 |
| 20260504214503 | 56 | 255 | 2.0 | 3.0 | 0.00 | 1.60 | 1.60 | 99 | 1012.1 |
| 20260504213603 | 56 | 234 | 2.0 | 3.0 | 0.00 | 1.51 | 1.51 | 99 | 1012.3 |
| 20260504212705 | 56 | 232 | 2.0 | 3.0 | 0.00 | 1.46 | 1.46 | 99 | 1012.3 |
| 20260504211803 | 56 | 180 | 1.0 | 3.0 | 0.00 | 1.41 | 1.41 | 99 | 1012.4 |
| 20260504211119 | 56 | 230 | 2.0 | 3.0 | 0.00 | 1.36 | 1.36 | 99 | 1012.2 |
| 20260504210005 | 56 | 245 | 1.0 | 3.0 | 0.00 | 1.27 | 1.27 | 99 | 1012.5 |
| 20260504205613 | 56 | 258 | 0.0 | 2.0 | 0.00 | 1.25 | 1.26 | 99 | 1012.4 |
| 20260504204503 | 57 | 266 | 1.0 | 3.0 | 0.00 | 1.10 | 1.10 | 99 | 1012.4 |
| 20260504203818 | 57 | 249 | 2.0 | 2.0 | 0.00 | 1.06 | 1.06 | 99 | 1012.5 |
| 20260504202705 | 57 | 202 | 0.0 | 1.0 | 0.00 | 1.04 | 1.04 | 99 | 1012.2 |
| 20260504201805 | 58 | 0 | 0.0 | 0.0 | 0.00 | 1.02 | 1.02 | 99 | 1012.5 |
| 20260504200905 | 57 | 229 | 1.0 | 1.0 | 0.00 | 1.01 | 1.01 | 99 | 1012.4 |
| 20260504200004 | 57 | 0 | 0.0 | 0.0 | 0.00 | 1.01 | 1.01 | 99 | 1012.4 |
| 20260504195405 | 58 | 0 | 0.0 | 0.0 | 0.00 | 0.99 | 0.99 | 99 | 1012.2 |
| 20260504194508 | 58 | 225 | 0.0 | 1.0 | 0.00 | 0.99 | 0.99 | 99 | 1012.0 |
| 20260504193603 | 57 | 230 | 1.0 | 1.0 | 0.00 | 0.99 | 0.99 | 99 | 1012.1 |
| 20260504192705 | 58 | 225 | 0.0 | 1.0 | 0.00 | 0.96 | 0.96 | 98 | 1012.3 |
| 20260504191805 | 58 | 0 | 0.0 | 0.0 | 0.00 | 0.96 | 0.96 | 98 | 1012.1 |
| 20260504191115 | 58 | 0 | 0.0 | 0.0 | 0.00 | 0.94 | 0.94 | 98 | 1012.2 |
| 20260504190004 | 58 | 67 | 0.0 | 1.0 | 0.00 | 0.90 | 0.90 | 97 | 1012.1 |
| 20260504185405 | 58 | 45 | 0.0 | 2.0 | 0.00 | 0.83 | 0.83 | 97 | 1012.0 |
| 20260504184504 | 58 | 11 | 1.0 | 2.0 | 0.00 | 0.74 | 0.74 | 96 | 1012.2 |
| 20260504183819 | 58 | 66 | 1.0 | 2.0 | 0.00 | 0.49 | 0.49 | 96 | 1012.3 |
| 20260504182703 | 59 | 46 | 2.0 | 3.0 | 0.00 | 0.25 | 0.25 | 95 | 1011.9 |
| 20260504181805 | 60 | 75 | 3.0 | 4.0 | 0.00 | 0.06 | 0.06 | 92 | 1011.9 |
| 20260504180905 | 60 | 52 | 5.0 | 7.0 | 0.00 | 0.00 | 0.00 | 88 | 1011.8 |